| time (UTC) | temp F | wind direction | speed MPH | gust MPH | rain 1hr in | rain 24hr in | rain mn in | humidity % | barometer mb |
| 20260903182223 | 77 | 176 | 0.0 | 2.0 | 0.00 | 2.17 | 0.83 | 92 | 1013.2 |
| 20260903181722 | 77 | 182 | 1.0 | 7.0 | 0.00 | 2.17 | 0.83 | 92 | 1013.2 |
| 20260903181221 | 77 | 203 | 0.0 | 6.0 | 0.00 | 2.17 | 0.83 | 89 | 1013.2 |
| 20260903180741 | 79 | 183 | 4.0 | 13.0 | 0.00 | 2.17 | 0.83 | 90 | 1013.3 |
| 20260903180219 | 78 | 194 | 2.0 | 10.0 | 0.00 | 2.17 | 0.83 | 93 | 1013.3 |
| 20260903175717 | 77 | 177 | 2.0 | 11.0 | 0.00 | 2.17 | 0.83 | 93 | 1013.1 |
| 20260903175217 | 76 | 180 | 2.0 | 7.0 | 0.00 | 2.17 | 0.83 | 96 | 1013.2 |
| 20260903174716 | 74 | 171 | 0.0 | 5.0 | 0.00 | 2.17 | 0.83 | 96 | 1013.3 |
| 20260903174215 | 74 | 215 | 0.0 | 0.0 | 0.00 | 2.17 | 0.83 | 96 | 1013.3 |
| 20260903173714 | 74 | 177 | 0.0 | 0.0 | 0.00 | 2.17 | 0.83 | 96 | 1013.4 |
| 20260903173234 | 74 | 177 | 0.0 | 4.0 | 0.00 | 2.17 | 0.83 | 97 | 1013.4 |
| 20260903172712 | 74 | 177 | 0.0 | 5.0 | 0.00 | 2.17 | 0.83 | 98 | 1013.5 |
| 20260903172211 | 73 | 177 | 0.0 | 2.0 | 0.00 | 2.17 | 0.83 | 98 | 1013.7 |
| 20260903171731 | 72 | 183 | 0.0 | 4.0 | 0.00 | 2.17 | 0.83 | 97 | 1013.8 |
| 20260903171209 | 73 | 183 | 3.0 | 7.0 | 0.01 | 2.17 | 0.83 | 98 | 1013.8 |
| 20260903170709 | 73 | 167 | 0.0 | 2.0 | 0.20 | 2.17 | 0.83 | 99 | 1013.9 |
| 20260903170206 | 72 | 163 | 2.0 | 7.0 | 0.39 | 2.17 | 0.83 | 99 | 1013.9 |
| 20260903165706 | 72 | 168 | 1.0 | 6.0 | 0.51 | 2.17 | 0.83 | 99 | 1014.0 |
| 20260903165204 | 72 | 169 | 1.0 | 8.0 | 0.58 | 2.17 | 0.83 | 100 | 1014.0 |
| 20260903164725 | 71 | 172 | 0.0 | 0.0 | 0.58 | 2.17 | 0.83 | 100 | 1013.9 |
| 20260903164203 | 71 | 183 | 1.0 | 8.0 | 0.58 | 2.17 | 0.83 | 100 | 1014.0 |
| 20260903163702 | 71 | 5 | 3.0 | 10.0 | 0.58 | 2.17 | 0.83 | 100 | 1014.2 |
| 20260903163201 | 70 | 138 | 0.0 | 5.0 | 0.58 | 2.17 | 0.83 | 100 | 1014.3 |
| 20260903162721 | 70 | 123 | 1.0 | 11.0 | 0.58 | 2.17 | 0.83 | 100 | 1014.4 |
| 20260903162219 | 69 | 110 | 3.0 | 7.0 | 0.58 | 2.17 | 0.83 | 99 | 1014.5 |
| 20260903161657 | 69 | 159 | 3.0 | 9.0 | 0.58 | 2.17 | 0.83 | 99 | 1014.6 |
| 20260903161157 | 69 | 352 | 5.0 | 13.0 | 0.56 | 2.15 | 0.81 | 99 | 1014.6 |
| 20260903160656 | 68 | 156 | 4.0 | 9.0 | 0.37 | 1.97 | 0.60 | 94 | 1014.7 |
| 20260903160216 | 32 | 288 | 8.0 | 20.0 | 0.19 | 1.79 | 0.43 | 1 | 1014.7 |
| 20260903155715 | 32 | 354 | 7.0 | 14.0 | 0.06 | 1.66 | 0.30 | 1 | 1014.7 |
| 20260903155153 | 32 | 349 | 2.0 | 10.0 | 0.00 | 1.60 | 0.25 | 1 | 1014.8 |
| 20260903154651 | 32 | 10 | 7.0 | 29.0 | 0.00 | 1.60 | 0.25 | 1 | 1014.9 |
| 20260903154211 | 32 | 10 | 14.0 | 36.0 | 0.00 | 1.60 | 0.25 | 1 | 1014.9 |
| 20260903153650 | 54 | 1 | 20.0 | 37.0 | 0.00 | 1.60 | 0.25 | 52 | 1015.9 |
| 20260903153148 | 75 | 351 | 8.0 | 21.0 | 0.00 | 1.60 | 0.25 | 99 | 1016.0 |
| 20260903152647 | 75 | 19 | 6.0 | 11.0 | 0.00 | 1.60 | 0.25 | 99 | 1016.0 |
| 20260903152146 | 76 | 9 | 6.0 | 15.0 | 0.00 | 1.60 | 0.25 | 99 | 1016.1 |
| 20260903151645 | 76 | 334 | 2.0 | 10.0 | 0.00 | 1.60 | 0.25 | 99 | 1015.7 |
| 20260903151145 | 76 | 313 | 1.0 | 8.0 | 0.00 | 1.60 | 0.25 | 99 | 1015.2 |
| 20260903150643 | 76 | 297 | 3.0 | 11.0 | 0.00 | 1.60 | 0.25 | 99 | 1015.2 |
| 20260903150203 | 76 | 298 | 1.0 | 9.0 | 0.00 | 1.60 | 0.25 | 99 | 1015.5 |
| 20260903145641 | 76 | 318 | 1.0 | 6.0 | 0.00 | 1.60 | 0.25 | 98 | 1014.7 |
| 20260903145140 | 76 | 275 | 0.0 | 0.0 | 0.00 | 1.60 | 0.25 | 98 | 1014.7 |
| 20260903144640 | 76 | 275 | 0.0 | 0.0 | 0.00 | 1.60 | 0.25 | 98 | 1014.6 |
| 20260903144138 | 76 | 275 | 0.0 | 0.0 | 0.00 | 1.60 | 0.25 | 98 | 1014.6 |
| 20260903143638 | 76 | 275 | 0.0 | 0.0 | 0.00 | 1.60 | 0.25 | 98 | 1014.7 |
| 20260903143136 | 77 | 275 | 0.0 | 2.0 | 0.00 | 1.60 | 0.25 | 97 | 1014.9 |
| 20260903142636 | 77 | 288 | 0.0 | 3.0 | 0.00 | 1.60 | 0.25 | 97 | 1014.8 |
| 20260903142155 | 77 | 323 | 0.0 | 5.0 | 0.00 | 1.60 | 0.25 | 97 | 1014.8 |
| 20260903141633 | 78 | 279 | 1.0 | 7.0 | 0.00 | 1.60 | 0.25 | 96 | 1014.5 |
| 20260903141132 | 78 | 248 | 0.0 | 4.0 | 0.00 | 1.60 | 0.25 | 97 | 1014.4 |
| 20260903140631 | 78 | 274 | 0.0 | 3.0 | 0.00 | 1.60 | 0.25 | 98 | 1014.5 |
| 20260903140152 | 78 | 276 | 1.0 | 7.0 | 0.00 | 1.60 | 0.25 | 98 | 1014.5 |
| 20260903135629 | 78 | 270 | 1.0 | 5.0 | 0.00 | 1.60 | 0.25 | 98 | 1014.3 |
| 20260903135128 | 77 | 289 | 2.0 | 9.0 | 0.00 | 1.60 | 0.25 | 99 | 1014.3 |
| 20260903134628 | 76 | 264 | 0.0 | 0.0 | 0.00 | 1.60 | 0.25 | 99 | 1014.5 |
| 20260903134127 | 76 | 297 | 0.0 | 0.0 | 0.00 | 1.60 | 0.25 | 100 | 1014.7 |
| 20260903133646 | 75 | 299 | 0.0 | 0.0 | 0.00 | 1.60 | 0.25 | 100 | 1014.9 |
| 20260903133124 | 75 | 299 | 0.0 | 0.0 | 0.00 | 1.60 | 0.25 | 100 | 1014.8 |
| 20260903132645 | 74 | 299 | 0.0 | 0.0 | 0.00 | 1.60 | 0.25 | 100 | 1014.9 |
| 20260903132122 | 74 | 291 | 0.0 | 0.0 | 0.00 | 1.60 | 0.25 | 100 | 1015.1 |
| 20260903131642 | 73 | 0 | 0.0 | 0.0 | 0.00 | 1.60 | 0.25 | 100 | 1015.1 |
| 20260903131120 | 73 | 0 | 0.0 | 0.0 | 0.00 | 1.60 | 0.25 | 100 | 1015.0 |
| 20260903130619 | 72 | 0 | 0.0 | 0.0 | 0.00 | 1.60 | 0.25 | 100 | 1015.0 |
| 20260903130118 | 72 | 0 | 0.0 | 0.0 | 0.00 | 1.60 | 0.25 | 100 | 1015.0 |
| 20260903125618 | 72 | 0 | 0.0 | 0.0 | 0.00 | 1.60 | 0.25 | 100 | 1015.1 |
| 20260903125137 | 72 | 0 | 0.0 | 0.0 | 0.00 | 1.60 | 0.25 | 100 | 1015.2 |
| 20260903124636 | 71 | 0 | 0.0 | 0.0 | 0.00 | 1.60 | 0.25 | 100 | 1015.3 |
| 20260903124114 | 71 | 0 | 0.0 | 0.0 | 0.00 | 1.60 | 0.25 | 100 | 1015.3 |
| 20260903123614 | 71 | 0 | 0.0 | 0.0 | 0.00 | 1.60 | 0.25 | 100 | 1015.4 |
| 20260903123133 | 71 | 0 | 0.0 | 0.0 | 0.00 | 1.60 | 0.25 | 100 | 1015.5 |
| 20260903122611 | 71 | 0 | 0.0 | 0.0 | 0.00 | 1.60 | 0.25 | 100 | 1015.6 |
| 20260903122131 | 70 | 0 | 0.0 | 0.0 | 0.00 | 1.60 | 0.25 | 100 | 1015.5 |
| 20260903121630 | 70 | 290 | 0.0 | 0.0 | 0.00 | 1.60 | 0.25 | 100 | 1015.5 |
| 20260903121108 | 70 | 277 | 0.0 | 0.0 | 0.00 | 1.60 | 0.25 | 100 | 1015.5 |
| 20260903120607 | 70 | 277 | 0.0 | 0.0 | 0.00 | 1.60 | 0.25 | 100 | 1015.5 |
| 20260903120106 | 70 | 277 | 0.0 | 0.0 | 0.00 | 1.60 | 0.25 | 100 | 1015.4 |
| 20260903115605 | 69 | 277 | 0.0 | 0.0 | 0.00 | 1.60 | 0.25 | 100 | 1015.4 |
| 20260903115105 | 69 | 277 | 0.0 | 0.0 | 0.00 | 1.60 | 0.25 | 100 | 1015.5 |
| 20260903114603 | 69 | 277 | 0.0 | 0.0 | 0.00 | 1.60 | 0.25 | 100 | 1015.5 |
| 20260903114102 | 68 | 277 | 0.0 | 0.0 | 0.00 | 1.60 | 0.25 | 100 | 1015.5 |
| 20260903113601 | 68 | 277 | 0.0 | 0.0 | 0.00 | 1.60 | 0.25 | 100 | 1015.4 |
| 20260903113122 | 68 | 277 | 0.0 | 0.0 | 0.00 | 1.60 | 0.25 | 100 | 1015.5 |
| 20260903112559 | 68 | 277 | 0.0 | 0.0 | 0.00 | 1.60 | 0.25 | 100 | 1015.5 |
| 20260903112058 | 68 | 277 | 0.0 | 0.0 | 0.00 | 1.60 | 0.25 | 100 | 1015.4 |
| 20260903111557 | 68 | 277 | 0.0 | 0.0 | 0.00 | 1.60 | 0.25 | 100 | 1015.4 |
| 20260903111056 | 68 | 277 | 0.0 | 0.0 | 0.00 | 1.60 | 0.25 | 100 | 1015.4 |
| 20260903110616 | 68 | 277 | 0.0 | 0.0 | 0.00 | 1.60 | 0.25 | 100 | 1015.3 |
| 20260903110054 | 68 | 277 | 0.0 | 0.0 | 0.00 | 1.60 | 0.25 | 100 | 1015.2 |
| 20260903105553 | 68 | 277 | 0.0 | 0.0 | 0.00 | 1.60 | 0.25 | 100 | 1015.1 |
| 20260903105052 | 68 | 277 | 0.0 | 0.0 | 0.00 | 1.60 | 0.25 | 100 | 1015.1 |
| 20260903104551 | 68 | 277 | 0.0 | 0.0 | 0.00 | 1.60 | 0.25 | 100 | 1015.0 |
| 20260903104050 | 68 | 277 | 0.0 | 0.0 | 0.00 | 1.60 | 0.25 | 100 | 1015.0 |
| 20260903103549 | 68 | 277 | 0.0 | 0.0 | 0.00 | 1.60 | 0.25 | 100 | 1015.0 |
| 20260903103048 | 68 | 277 | 0.0 | 0.0 | 0.00 | 1.60 | 0.25 | 100 | 1015.0 |
| 20260903102547 | 68 | 277 | 0.0 | 0.0 | 0.00 | 1.60 | 0.25 | 100 | 1015.1 |
| 20260903102046 | 68 | 277 | 0.0 | 0.0 | 0.00 | 1.60 | 0.25 | 100 | 1015.1 |
| 20260903101545 | 68 | 277 | 0.0 | 0.0 | 0.00 | 1.60 | 0.25 | 100 | 1015.0 |
| 20260903101044 | 68 | 277 | 0.0 | 0.0 | 0.00 | 1.60 | 0.25 | 100 | 1015.0 |
| 20260903100543 | 68 | 277 | 0.0 | 0.0 | 0.00 | 1.60 | 0.25 | 100 | 1015.0 |
| 20260903100042 | 68 | 277 | 0.0 | 0.0 | 0.00 | 1.60 | 0.25 | 100 | 1015.0 |
| 20260903095540 | 68 | 277 | 0.0 | 0.0 | 0.00 | 1.60 | 0.25 | 100 | 1015.0 |
| 20260903095040 | 68 | 277 | 0.0 | 0.0 | 0.00 | 1.60 | 0.25 | 100 | 1015.0 |
| 20260903094539 | 68 | 277 | 0.0 | 0.0 | 0.00 | 1.60 | 0.25 | 100 | 1015.0 |
| 20260903094037 | 68 | 277 | 0.0 | 0.0 | 0.00 | 1.60 | 0.25 | 100 | 1014.9 |
| 20260903093537 | 68 | 326 | 0.0 | 0.0 | 0.00 | 1.60 | 0.25 | 100 | 1014.9 |
| 20260903093035 | 68 | 313 | 0.0 | 0.0 | 0.00 | 1.60 | 0.25 | 100 | 1014.8 |
| 20260903092535 | 68 | 313 | 0.0 | 0.0 | 0.00 | 1.60 | 0.25 | 100 | 1014.8 |
| 20260903092034 | 68 | 313 | 0.0 | 0.0 | 0.01 | 1.60 | 0.25 | 100 | 1014.7 |
| 20260903091533 | 68 | 313 | 0.0 | 0.0 | 0.01 | 1.60 | 0.25 | 100 | 1014.7 |
| 20260903091052 | 68 | 313 | 0.0 | 0.0 | 0.01 | 1.60 | 0.25 | 100 | 1014.6 |
| 20260903090531 | 68 | 275 | 0.0 | 0.0 | 0.01 | 1.60 | 0.25 | 100 | 1014.6 |
| 20260903090030 | 68 | 275 | 0.0 | 0.0 | 0.01 | 1.60 | 0.25 | 100 | 1014.6 |
| 20260903085529 | 68 | 275 | 0.0 | 0.0 | 0.01 | 1.60 | 0.25 | 100 | 1014.5 |
| 20260903085028 | 68 | 275 | 0.0 | 0.0 | 0.01 | 1.60 | 0.25 | 100 | 1014.5 |
| 20260903084526 | 68 | 275 | 0.0 | 0.0 | 0.01 | 1.60 | 0.25 | 100 | 1014.5 |
| 20260903084026 | 68 | 275 | 0.0 | 0.0 | 0.01 | 1.60 | 0.25 | 100 | 1014.4 |
| 20260903083546 | 68 | 275 | 0.0 | 0.0 | 0.01 | 1.60 | 0.25 | 100 | 1014.4 |
| 20260903083024 | 68 | 275 | 0.0 | 0.0 | 0.01 | 1.60 | 0.25 | 100 | 1014.4 |
| 20260903082522 | 68 | 275 | 0.0 | 0.0 | 0.01 | 1.60 | 0.25 | 100 | 1014.3 |
| 20260903082022 | 68 | 275 | 0.0 | 0.0 | 0.00 | 1.59 | 0.24 | 100 | 1014.4 |
| 20260903081521 | 68 | 275 | 0.0 | 0.0 | 0.05 | 1.59 | 0.24 | 100 | 1014.4 |
| 20260903081020 | 68 | 275 | 0.0 | 0.0 | 0.08 | 1.59 | 0.24 | 100 | 1014.4 |
| 20260903080518 | 68 | 275 | 0.0 | 0.0 | 0.08 | 1.59 | 0.24 | 100 | 1014.4 |
| 20260903080017 | 68 | 275 | 0.0 | 0.0 | 0.08 | 1.59 | 0.24 | 100 | 1014.3 |
| 20260903075517 | 68 | 275 | 0.0 | 0.0 | 0.08 | 1.59 | 0.24 | 100 | 1014.3 |
| 20260903075015 | 68 | 275 | 0.0 | 0.0 | 0.08 | 1.59 | 0.24 | 100 | 1014.3 |
| 20260903074514 | 68 | 275 | 0.0 | 0.0 | 0.08 | 1.59 | 0.24 | 100 | 1014.3 |
| 20260903074034 | 68 | 275 | 0.0 | 0.0 | 0.08 | 1.59 | 0.24 | 100 | 1014.3 |
| 20260903073512 | 69 | 275 | 0.0 | 0.0 | 0.08 | 1.59 | 0.24 | 100 | 1014.4 |
| 20260903073012 | 69 | 264 | 0.0 | 4.0 | 0.08 | 1.59 | 0.24 | 100 | 1014.6 |
| 20260903072511 | 69 | 281 | 4.0 | 13.0 | 0.08 | 1.59 | 0.24 | 100 | 1014.7 |
| 20260903072009 | 70 | 257 | 8.0 | 26.0 | 0.08 | 1.59 | 0.24 | 100 | 1014.9 |
| 20260903071508 | 70 | 280 | 4.0 | 35.0 | 0.08 | 1.54 | 0.18 | 100 | 1015.4 |
| 20260903071007 | 70 | 349 | 1.0 | 5.0 | 0.10 | 1.51 | 0.16 | 100 | 1014.8 |
| 20260903070506 | 70 | 357 | 0.0 | 0.0 | 0.11 | 1.51 | 0.16 | 100 | 1014.5 |
| 20260903070037 | 70 | 357 | 0.0 | 0.0 | 0.11 | 1.51 | 0.16 | 100 | 1014.3 |
| 20260903070005 | 70 | 357 | 0.0 | 0.0 | 0.11 | 1.51 | 0.16 | 100 | 1014.3 |
| 20260903065525 | 69 | 357 | 0.0 | 0.0 | 0.11 | 1.51 | 0.16 | 100 | 1014.1 |
| 20260903065004 | 69 | 357 | 0.0 | 0.0 | 0.11 | 1.51 | 0.16 | 100 | 1014.3 |
| 20260903064524 | 69 | 357 | 0.0 | 0.0 | 0.11 | 1.51 | 0.16 | 100 | 1014.3 |
| 20260903064002 | 69 | 5 | 1.0 | 6.0 | 0.11 | 1.51 | 0.16 | 100 | 1014.3 |
| 20260903063500 | 69 | 357 | 2.0 | 8.0 | 0.11 | 1.51 | 0.16 | 99 | 1014.1 |
| 20260903062959 | 69 | 346 | 2.0 | 8.0 | 0.11 | 1.51 | 0.16 | 99 | 1014.1 |
| 20260903062519 | 69 | 354 | 6.0 | 13.0 | 0.11 | 1.51 | 0.16 | 99 | 1014.2 |
| 20260903062019 | 69 | 6 | 13.0 | 26.0 | 0.11 | 1.51 | 0.16 | 99 | 1013.9 |
| 20260903061517 | 69 | 5 | 11.0 | 18.0 | 0.06 | 1.45 | 0.09 | 99 | 1014.5 |
| 20260903061017 | 70 | 12 | 8.0 | 30.0 | 0.01 | 1.40 | 0.05 | 100 | 1014.7 |
| 20260903060454 | 70 | 2 | 5.0 | 12.0 | 0.00 | 1.39 | 0.04 | 100 | 1014.9 |
| 20260903055953 | 70 | 47 | 0.0 | 0.0 | 0.00 | 1.39 | 0.04 | 99 | 1014.6 |
| 20260903055452 | 70 | 9 | 1.0 | 4.0 | 0.00 | 1.39 | 0.04 | 99 | 1014.7 |
| 20260903054952 | 70 | 351 | 0.0 | 0.0 | 0.00 | 1.39 | 0.04 | 99 | 1014.5 |
| 20260903054450 | 70 | 240 | 0.0 | 0.0 | 0.00 | 1.39 | 0.04 | 99 | 1014.5 |
| 20260903053949 | 70 | 240 | 0.0 | 0.0 | 0.02 | 1.39 | 0.04 | 99 | 1014.4 |
| 20260903053449 | 70 | 240 | 0.0 | 0.0 | 0.02 | 1.39 | 0.04 | 99 | 1014.2 |
| 20260903052947 | 70 | 240 | 0.0 | 0.0 | 0.03 | 1.39 | 0.04 | 99 | 1014.3 |
| 20260903052446 | 70 | 240 | 0.0 | 0.0 | 0.04 | 1.39 | 0.04 | 99 | 1014.3 |
| 20260903051945 | 70 | 240 | 0.0 | 0.0 | 0.04 | 1.39 | 0.04 | 99 | 1014.3 |
| 20260903051444 | 70 | 240 | 0.0 | 0.0 | 0.04 | 1.39 | 0.04 | 99 | 1014.3 |
| 20260903050944 | 70 | 240 | 0.0 | 0.0 | 0.04 | 1.39 | 0.04 | 99 | 1014.2 |
| 20260903050442 | 70 | 240 | 0.0 | 0.0 | 0.04 | 1.39 | 0.04 | 99 | 1014.2 |
| 20260903045941 | 70 | 240 | 0.0 | 0.0 | 0.04 | 1.39 | 0.04 | 99 | 1014.3 |
| 20260903045440 | 70 | 240 | 0.0 | 0.0 | 0.04 | 1.39 | 0.04 | 99 | 1014.3 |
| 20260903044939 | 70 | 240 | 0.0 | 0.0 | 0.04 | 1.39 | 0.04 | 99 | 1014.3 |
| 20260903044438 | 70 | 262 | 0.0 | 0.0 | 0.05 | 1.39 | 0.03 | 99 | 1014.4 |
| 20260903043937 | 70 | 262 | 0.0 | 0.0 | 0.08 | 1.37 | 0.02 | 99 | 1014.4 |
| 20260903043436 | 69 | 262 | 0.0 | 0.0 | 0.09 | 1.37 | 0.02 | 99 | 1014.3 |
| 20260903042956 | 69 | 262 | 0.0 | 0.0 | 0.08 | 1.36 | 0.00 | 99 | 1014.3 |
| 20260903042435 | 69 | 262 | 0.0 | 0.0 | 0.07 | 1.35 | 0.00 | 99 | 1014.3 |
| 20260903041934 | 69 | 266 | 0.0 | 4.0 | 0.08 | 1.35 | 0.00 | 99 | 1014.3 |
| 20260903041432 | 69 | 337 | 0.0 | 0.0 | 0.12 | 1.35 | 0.00 | 99 | 1014.3 |
| 20260903040931 | 69 | 269 | 0.0 | 0.0 | 0.20 | 1.35 | 0.00 | 99 | 1014.2 |
| 20260903040451 | 69 | 270 | 0.0 | 0.0 | 0.30 | 1.35 | 0.00 | 98 | 1014.2 |
| 20260903035929 | 69 | 271 | 0.0 | 5.0 | 0.48 | 1.35 | 1.35 | 98 | 1014.3 |
| 20260903035428 | 69 | 335 | 1.0 | 5.0 | 0.71 | 1.35 | 1.35 | 98 | 1014.4 |
| 20260903034927 | 69 | 291 | 4.0 | 16.0 | 0.98 | 1.35 | 1.35 | 98 | 1014.4 |
| 20260903034426 | 68 | 277 | 6.0 | 22.0 | 1.32 | 1.34 | 1.34 | 98 | 1014.8 |
| 20260903033925 | 68 | 280 | 6.0 | 21.0 | 1.29 | 1.29 | 1.29 | 98 | 1015.2 |
| 20260903033424 | 68 | 278 | 2.0 | 11.0 | 1.28 | 1.28 | 1.28 | 97 | 1014.7 |
| 20260903032944 | 68 | 287 | 2.0 | 10.0 | 1.28 | 1.28 | 1.28 | 97 | 1014.5 |
| 20260903032422 | 68 | 240 | 3.0 | 13.0 | 1.28 | 1.28 | 1.28 | 97 | 1014.5 |
| 20260903031921 | 68 | 205 | 1.0 | 8.0 | 1.27 | 1.27 | 1.27 | 96 | 1014.6 |
| 20260903031420 | 68 | 238 | 3.0 | 11.0 | 1.22 | 1.22 | 1.22 | 96 | 1015.1 |
| 20260903030919 | 68 | 229 | 8.0 | 25.0 | 1.14 | 1.14 | 1.14 | 95 | 1015.4 |
| 20260903030418 | 69 | 253 | 16.0 | 43.0 | 1.05 | 1.05 | 1.03 | 94 | 1016.1 |
| 20260903025917 | 70 | 301 | 22.0 | 55.0 | 0.86 | 0.86 | 0.86 | 93 | 1015.4 |
| 20260903025416 | 49 | 358 | 24.0 | 51.0 | 0.63 | 0.63 | 0.62 | 41 | 1014.7 |
| 20260903024915 | 72 | 310 | 22.0 | 51.0 | 0.35 | 0.35 | 0.31 | 72 | 1014.7 |
| 20260903024415 | 79 | 319 | 11.0 | 47.0 | 0.01 | 0.01 | 0.01 | 78 | 1013.0 |
| 20260903023913 | 80 | 347 | 10.0 | 20.0 | 0.00 | 0.00 | 0.00 | 76 | 1012.4 |
| 20260903023412 | 82 | 4 | 11.0 | 29.0 | 0.00 | 0.00 | 0.00 | 74 | 1011.8 |
| 20260903022911 | 82 | 12 | 7.0 | 22.0 | 0.00 | 0.00 | 0.00 | 73 | 1012.0 |
| 20260903022410 | 82 | 3 | 7.0 | 19.0 | 0.00 | 0.00 | 0.00 | 73 | 1012.0 |
| 20260903021909 | 82 | 290 | 0.0 | 0.0 | 0.00 | 0.00 | 0.00 | 72 | 1012.0 |
| 20260903021408 | 83 | 290 | 0.0 | 0.0 | 0.00 | 0.00 | 0.00 | 72 | 1012.1 |
| 20260903020907 | 83 | 290 | 0.0 | 0.0 | 0.00 | 0.00 | 0.00 | 71 | 1012.5 |
| 20260903020407 | 83 | 290 | 0.0 | 0.0 | 0.00 | 0.00 | 0.00 | 71 | 1012.8 |
| 20260903015926 | 84 | 290 | 0.0 | 0.0 | 0.00 | 0.00 | 0.00 | 70 | 1012.8 |
| 20260903015404 | 84 | 290 | 0.0 | 0.0 | 0.00 | 0.00 | 0.00 | 69 | 1012.8 |
| 20260903014903 | 84 | 288 | 0.0 | 0.0 | 0.00 | 0.00 | 0.00 | 68 | 1012.8 |
| 20260903014401 | 84 | 282 | 0.0 | 2.0 | 0.00 | 0.00 | 0.00 | 67 | 1012.7 |
| 20260903013901 | 85 | 315 | 0.0 | 3.0 | 0.00 | 0.00 | 0.00 | 67 | 1012.7 |
| 20260903013400 | 85 | 300 | 0.0 | 3.0 | 0.00 | 0.00 | 0.00 | 66 | 1012.6 |
| 20260903012859 | 85 | 285 | 0.0 | 4.0 | 0.00 | 0.00 | 0.00 | 66 | 1012.6 |
| 20260903012419 | 85 | 276 | 0.0 | 0.0 | 0.00 | 0.00 | 0.00 | 65 | 1012.5 |
| 20260903011918 | 85 | 274 | 0.0 | 0.0 | 0.00 | 0.00 | 0.00 | 65 | 1012.5 |
| 20260903011416 | 85 | 272 | 0.0 | 2.0 | 0.00 | 0.00 | 0.00 | 65 | 1012.4 |
| 20260903010916 | 85 | 276 | 0.0 | 2.0 | 0.00 | 0.00 | 0.00 | 64 | 1012.3 |
| 20260903010354 | 86 | 283 | 0.0 | 4.0 | 0.00 | 0.00 | 0.00 | 64 | 1012.2 |
| 20260903005853 | 86 | 266 | 0.0 | 3.0 | 0.00 | 0.00 | 0.00 | 64 | 1012.2 |
| 20260903005352 | 86 | 270 | 0.0 | 0.0 | 0.00 | 0.00 | 0.00 | 63 | 1012.2 |
| 20260903004850 | 86 | 267 | 0.0 | 1.0 | 0.00 | 0.00 | 0.00 | 63 | 1012.1 |
| 20260903004350 | 86 | 273 | 0.0 | 3.0 | 0.00 | 0.00 | 0.00 | 62 | 1012.1 |
| 20260903003910 | 87 | 301 | 0.0 | 4.0 | 0.00 | 0.00 | 0.00 | 62 | 1012.0 |
| 20260903003347 | 87 | 275 | 1.0 | 5.0 | 0.00 | 0.00 | 0.00 | 62 | 1012.0 |
| 20260903002847 | 87 | 284 | 2.0 | 7.0 | 0.00 | 0.00 | 0.00 | 61 | 1012.0 |
| 20260903002345 | 87 | 329 | 1.0 | 8.0 | 0.00 | 0.00 | 0.00 | 61 | 1012.0 |
| 20260903001906 | 87 | 296 | 0.0 | 0.0 | 0.00 | 0.00 | 0.00 | 61 | 1011.9 |
| 20260903001343 | 87 | 288 | 0.0 | 4.0 | 0.00 | 0.00 | 0.00 | 60 | 1011.9 |
| 20260903000843 | 88 | 310 | 1.0 | 10.0 | 0.00 | 0.00 | 0.00 | 60 | 1011.9 |
| 20260903000342 | 88 | 283 | 1.0 | 8.0 | 0.00 | 0.00 | 0.00 | 59 | 1011.9 |
| 20260902235901 | 88 | 289 | 3.0 | 13.0 | 0.00 | 0.00 | 0.00 | 58 | 1011.8 |
| 20260902235340 | 88 | 290 | 3.0 | 10.0 | 0.00 | 0.00 | 0.00 | 58 | 1011.8 |
| 20260902234839 | 88 | 293 | 4.0 | 12.0 | 0.00 | 0.00 | 0.00 | 58 | 1011.9 |
| 20260902234337 | 89 | 269 | 1.0 | 11.0 | 0.00 | 0.00 | 0.00 | 57 | 1011.9 |
| 20260902233836 | 89 | 287 | 5.0 | 14.0 | 0.00 | 0.00 | 0.00 | 57 | 1011.9 |
| 20260902233335 | 89 | 270 | 1.0 | 12.0 | 0.00 | 0.00 | 0.00 | 57 | 1011.9 |
| 20260902232835 | 89 | 286 | 4.0 | 17.0 | 0.00 | 0.00 | 0.00 | 56 | 1011.9 |
| 20260902232334 | 89 | 270 | 2.0 | 12.0 | 0.00 | 0.00 | 0.00 | 55 | 1011.9 |
| 20260902231853 | 90 | 278 | 8.0 | 21.0 | 0.00 | 0.00 | 0.00 | 54 | 1011.9 |
| 20260902231332 | 90 | 289 | 10.0 | 28.0 | 0.00 | 0.00 | 0.00 | 54 | 1011.9 |
| 20260902230830 | 90 | 291 | 11.0 | 25.0 | 0.00 | 0.00 | 0.00 | 54 | 1011.8 |
| 20260902230350 | 91 | 275 | 4.0 | 14.0 | 0.00 | 0.00 | 0.00 | 55 | 1011.7 |
| 20260902225829 | 91 | 278 | 3.0 | 12.0 | 0.00 | 0.00 | 0.00 | 54 | 1011.7 |
| 20260902225349 | 91 | 293 | 5.0 | 24.0 | 0.00 | 0.00 | 0.00 | 54 | 1011.7 |
| 20260902224826 | 91 | 283 | 4.0 | 13.0 | 0.00 | 0.00 | 0.00 | 54 | 1011.6 |
| 20260902224325 | 92 | 297 | 6.0 | 19.0 | 0.00 | 0.00 | 0.00 | 53 | 1011.6 |
| 20260902223825 | 92 | 276 | 5.0 | 16.0 | 0.00 | 0.00 | 0.00 | 52 | 1011.5 |
| 20260902223323 | 92 | 275 | 6.0 | 16.0 | 0.00 | 0.00 | 0.00 | 51 | 1011.4 |
| 20260902222822 | 93 | 300 | 6.0 | 17.0 | 0.00 | 0.00 | 0.00 | 51 | 1011.5 |
| 20260902222321 | 93 | 294 | 9.0 | 33.0 | 0.00 | 0.00 | 0.00 | 50 | 1011.5 |
| 20260902221820 | 92 | 289 | 7.0 | 28.0 | 0.00 | 0.00 | 0.00 | 51 | 1011.6 |
| 20260902221319 | 92 | 295 | 13.0 | 29.0 | 0.00 | 0.00 | 0.00 | 51 | 1011.5 |
| 20260902220840 | 92 | 280 | 12.0 | 25.0 | 0.00 | 0.00 | 0.00 | 51 | 1011.4 |
| 20260902220317 | 92 | 290 | 9.0 | 23.0 | 0.00 | 0.00 | 0.00 | 50 | 1011.2 |
| 20260902215817 | 92 | 266 | 6.0 | 17.0 | 0.00 | 0.00 | 0.00 | 50 | 1011.1 |
| 20260902215336 | 92 | 273 | 11.0 | 28.0 | 0.00 | 0.00 | 0.00 | 50 | 1011.1 |
| 20260902214835 | 92 | 260 | 9.0 | 23.0 | 0.00 | 0.00 | 0.00 | 50 | 1011.2 |
| 20260902214314 | 93 | 273 | 13.0 | 37.0 | 0.00 | 0.00 | 0.00 | 50 | 1011.3 |
| 20260902213812 | 93 | 291 | 9.0 | 22.0 | 0.00 | 0.00 | 0.00 | 51 | 1011.4 |
| 20260902213311 | 93 | 300 | 10.0 | 23.0 | 0.00 | 0.00 | 0.00 | 50 | 1011.5 |
| 20260902212811 | 93 | 282 | 7.0 | 26.0 | 0.00 | 0.00 | 0.00 | 51 | 1011.5 |
| 20260902212309 | 93 | 273 | 5.0 | 27.0 | 0.00 | 0.00 | 0.00 | 51 | 1011.5 |
| 20260902211808 | 93 | 300 | 11.0 | 34.0 | 0.00 | 0.00 | 0.00 | 50 | 1011.6 |
| 20260902211329 | 93 | 314 | 11.0 | 26.0 | 0.00 | 0.00 | 0.00 | 50 | 1011.6 |
| 20260902210807 | 93 | 289 | 10.0 | 21.0 | 0.00 | 0.00 | 0.00 | 50 | 1011.6 |
| 20260902210305 | 92 | 280 | 8.0 | 31.0 | 0.00 | 0.00 | 0.00 | 50 | 1011.6 |
| 20260902205805 | 92 | 288 | 8.0 | 19.0 | 0.00 | 0.00 | 0.00 | 50 | 1011.6 |
| 20260902205324 | 93 | 276 | 7.0 | 19.0 | 0.00 | 0.00 | 0.00 | 50 | 1011.7 |
| 20260902204802 | 93 | 290 | 10.0 | 25.0 | 0.00 | 0.00 | 0.00 | 49 | 1011.6 |
| 20260902204301 | 94 | 274 | 6.0 | 16.0 | 0.00 | 0.00 | 0.00 | 49 | 1011.6 |
| 20260902203800 | 94 | 300 | 9.0 | 26.0 | 0.00 | 0.00 | 0.00 | 50 | 1011.7 |
| 20260902203300 | 93 | 285 | 5.0 | 17.0 | 0.00 | 0.00 | 0.00 | 50 | 1011.8 |
| 20260902202758 | 93 | 318 | 10.0 | 21.0 | 0.00 | 0.00 | 0.00 | 49 | 1011.9 |
| 20260902202257 | 93 | 297 | 8.0 | 22.0 | 0.00 | 0.00 | 0.00 | 49 | 1011.9 |
| 20260902201757 | 94 | 283 | 6.0 | 18.0 | 0.00 | 0.00 | 0.00 | 48 | 1012.0 |